Погода в Кульякане

Мексика     24°47′57″N   107°23′00″W
темп.,
°C
ветер,
м/с
пор.,
м/с
влажн.,
%
обл.,
%
осадки,
мм/ч
давл.,
гПа
погр.,
м
31 июля, сб
сб3100:00+27сз22741 0.0 101249
03:00+26с11785 0.4 101111
06:00+25с11795 0.4 101113
09:00+30вюв11635 0.0 1013384
12:00+36ю33435 0.0 10131534
15:00+35ююз744861 0.0 10121510
18:00+31ююз6762100 0.3 1011912
21:00+26с2387100 6.3 101572
1 августа, вс
вс100:00+25св2386100 8.1 101474
03:00+25св228598 0.0 101339
06:00+24св128750 0.0 101421
09:00+28в217357 0.0 1015383
12:00+34з125231 0.0 10141332
15:00+37зюз544140 0.0 10101975
18:00+34зюз664934 0.0 1010871
21:00+27юв61084100 4.4 1014278
2 августа, пн
пн200:00+26всв1290100 7.6 101594
03:00+26в1191100 0.0 101380
06:00+25ссз1192100 0.0 101323
09:00+28всв118094 0.0 1015488
12:00+32ююв016152 0.2 10131239
15:00+32юз6456100 0.1 10111019
18:00+33ююз4357100 0.2 10101181
21:00+27з1184100 4.1 101332
3 августа, вт
вт300:00+24юв3697100 26.4 1013174
03:00+25ссв1189100 1.0 101229
06:00+25св1290100 1.0 101224
09:00+28всв217619 0.0 1013349
12:00+33зюз12577 0.0 10121155
15:00+35ююз434614 0.0 10091830
18:00+32юз456179 0.2 1010861
21:00+26ююв1185100 3.2 101116
4 августа, ср
ср400:00+26в1187100 4.6 101213
03:00+25всв1191100 0.4 101112
06:00+25всв1293100 0.4 101127
09:00+28в0081100 0.0 1012368
12:00+32зюз1160100 0.0 10111263
15:00+34ююз445490 0.3 10091187
18:00+33зюз5556100 0.3 10081060
21:00+25ссв2394100 6.0 1012118